Kosmos-1241

operational
NORAD ID: 12149 Int'l Des: 1981-006 Owner: PKO Country: SU
LEOCIRCULAR

关于 Kosmos-1241

正在加载描述...

实时位置

正在加载3D地球...

即将过境

高度历史

Altitude vs Time

uPlot chart will show altitude changes over time

两行轨道根数

1 12149U 81006A 26062.36637990 -.00000081 00000-0 -57782-6 0 9997
2 12149 65.8249 31.9634 0017479 217.4235 296.2100 13.72230338260281
Epoch: Mar 3, 2026 • Age: 28 hours

当前状态

高度 988.0 km
速度 7.36 km/s
星下点 -27.09°S, 3.37°W
发射日期 Jan 21, 1981
运行时间 45.1 years
类型 other

技术详情

分类 Payload
质量 1045.00 kg
干质量 925.00 kg
总质量 1045.00 kg
长度 2.50 m
直径 1.80 m
跨度 23.00 m
形状 Cyl + Ant
制造商 YUZH
平台类型 Romb
阶段状态 In Orbit
所有者/国家 PKO/SU

大型星座

Loading constellations...